FW9692 Weather Reports


time (UTC)temp
F
wind
direction
speed
knots
gust
knots
rain 1hr
in
rain 24hr
in
rain mn
in
humidity
%
barometer
mb
20260509190035 89 142 1.7 12.2 0.00 0.00 0.00 13 998.7
20260509184544 89 265 7.0 19.1 0.00 0.00 0.00 12 999.1
20260509183052 89 228 13.0 20.9 0.00 0.00 0.00 14 999.3
20260509181542 88 207 13.0 18.2 0.00 0.00 0.00 14 999.6
20260509180041 87 178 10.4 15.6 0.00 0.00 0.00 16 999.7
20260509174558 86 219 13.9 18.2 0.00 0.00 0.00 17 999.9
20260509173019 86 141 9.6 22.6 0.00 0.00 0.00 18 1000.1
20260509171517 85 182 13.9 18.2 0.00 0.00 0.00 19 1000.3
20260509170022 84 175 9.6 14.8 0.00 0.00 0.00 20 1000.5
20260509164514 83 169 10.4 16.5 0.00 0.00 0.00 20 1000.6
20260509163032 82 168 12.2 16.5 0.00 0.00 0.00 21 1000.6
20260509161518 81 185 13.9 17.4 0.00 0.00 0.00 22 1000.6
20260509160015 80 169 11.3 15.6 0.00 0.00 0.00 24 1000.7
20260509154511 78 185 10.4 15.6 0.00 0.00 0.00 26 1000.9
20260509153022 76 186 10.4 13.0 0.00 0.00 0.00 27 1001.0
20260509151514 75 160 12.2 15.6 0.00 0.00 0.00 28 1001.2
20260509150012 74 166 13.0 16.5 0.00 0.00 0.00 29 1001.4
20260509144507 72 192 8.7 10.4 0.00 0.00 0.00 31 1001.4
20260509143011 70 195 9.6 12.2 0.00 0.00 0.00 33 1001.6
20260509141511 68 198 8.7 11.3 0.00 0.00 0.00 36 1001.5
20260509140012 67 213 10.4 12.2 0.00 0.00 0.00 36 1001.4
20260509134508 67 207 9.6 14.8 0.00 0.00 0.00 36 1001.3
20260509133044 66 195 10.4 13.9 0.00 0.00 0.00 36 1001.2
20260509131543 65 191 7.8 9.6 0.00 0.00 0.00 39 1001.1
20260509130046 64 171 8.7 10.4 0.00 0.00 0.00 41 1001.0
20260509124548 63 159 9.6 12.2 0.00 0.00 0.00 42 1001.0
20260509123006 62 173 7.8 11.3 0.00 0.00 0.00 43 1000.6
20260509121509 62 196 8.7 12.2 0.00 0.00 0.00 45 1000.3
20260509120002 62 165 8.7 9.6 0.00 0.00 0.00 45 1000.3
20260509114603 64 156 6.1 11.3 0.00 0.00 0.00 43 1000.3
20260509113058 65 146 7.8 11.3 0.00 0.00 0.00 42 1000.2
20260509111553 65 140 8.7 10.4 0.00 0.00 0.00 42 1000.1
20260509104518 64 116 5.2 7.8 0.00 0.00 0.00 44 1000.0
20260509103014 65 139 6.1 9.6 0.00 0.00 0.00 43 999.8
20260509101521 66 136 7.8 9.6 0.00 0.00 0.00 40 999.8
20260509094556 68 149 7.0 13.0 0.00 0.00 0.00 37 999.8
20260509093043 67 249 10.4 13.0 0.00 0.00 0.00 39 999.2
20260509091540 68 226 7.8 12.2 0.00 0.00 0.00 38 998.9
20260509084526 70 259 11.3 13.9 0.00 0.00 0.00 35 999.0
20260509083034 69 261 9.6 12.2 0.00 0.00 0.00 35 999.0
20260509081523 69 258 11.3 13.9 0.00 0.00 0.00 35 999.1
20260509074524 69 268 11.3 13.9 0.00 0.00 0.00 36 999.1
20260509073029 68 257 11.3 13.0 0.00 0.00 0.00 37 999.1
20260509071526 69 254 11.3 14.8 0.00 0.00 0.00 37 999.2
20260509064649 69 248 12.2 13.9 0.00 0.00 0.00 37 999.5
20260509063048 70 244 12.2 15.6 0.00 0.00 0.00 37 999.6
20260509061548 70 254 12.2 16.5 0.00 0.00 0.00 36 999.7
20260509054512 69 248 11.3 13.9 0.00 0.00 0.00 37 999.9
20260509053013 69 259 11.3 13.9 0.00 0.00 0.00 38 1000.1
20260509051510 70 248 10.4 13.0 0.00 0.00 0.00 38 1000.1
20260509044518 71 248 10.4 13.9 0.00 0.00 0.00 37 1000.4
20260509043015 71 236 10.4 13.0 0.00 0.00 0.00 37 1000.4
20260509041513 72 240 11.3 14.8 0.00 0.00 0.00 36 1000.4
20260509034530 73 244 12.2 16.5 0.00 0.00 0.00 34 1000.1
20260509033026 74 227 13.0 16.5 0.00 0.00 0.00 33 1000.0
20260509031537 75 228 13.0 19.1 0.00 0.00 0.00 33 999.8
20260509024519 76 228 14.8 18.2 0.00 0.00 0.00 30 999.7
20260509023021 77 225 13.9 19.1 0.00 0.00 0.00 29 999.7
20260509021520 78 223 14.8 20.9 0.00 0.00 0.00 26 999.6
20260509014530 79 194 14.8 20.0 0.00 0.00 0.00 25 999.0
20260509004517 82 178 14.8 20.0 0.00 0.00 0.00 28 998.4
20260509003012 84 165 9.6 14.8 0.00 0.00 0.00 18 998.3
20260509001512 84 147 9.6 15.6 0.00 0.00 0.00 17 998.3
20260509000109 84 153 9.6 13.0 0.00 0.00 0.00 18 998.3
20260508234516 84 146 9.6 13.0 0.00 0.00 0.00 19 998.4
20260508233016 84 196 3.5 7.8 0.00 0.00 0.00 18 998.4
20260508231514 84 115 3.5 9.6 0.00 0.00 0.00 18 998.4
20260508230114 84 178 1.7 13.9 0.00 0.00 0.00 18 998.3
20260508224642 84 98 9.6 14.8 0.00 0.00 0.00 18 998.3
20260508223059 84 124 4.3 8.7 0.00 0.00 0.00 17 998.3
20260508221557 84 339 7.8 12.2 0.00 0.00 0.00 17 998.3
20260508220057 84 15 7.8 13.9 0.00 0.00 0.00 17 998.6
20260508214510 84 330 3.5 8.7 0.00 0.00 0.00 18 998.7
20260508213018 83 44 2.6 8.7 0.00 0.00 0.00 21 998.8
20260508211503 82 123 9.6 13.0 0.00 0.00 0.00 22 998.8
20260508204553 81 28 7.8 14.8 0.00 0.00 0.00 29 999.0
20260508203100 80 51 9.6 13.9 0.00 0.00 0.00 33 999.3
20260508201552 79 17 8.7 13.0 0.00 0.00 0.00 38 999.6
20260508200044 78 90 9.6 15.6 0.00 0.00 0.00 39 999.8
20260508194600 77 40 7.0 13.9 0.00 0.00 0.00 47 1000.0
20260508193103 76 25 4.3 13.0 0.00 0.00 0.00 49 1000.3
20260508191553 75 15 6.1 10.4 0.00 0.00 0.00 51 1000.4